Location: Buena Vista
(37.7110°N, 119.7938°W)
Time: 05:46:07
(UTC+00:00)

SEEDS - Pass Details

Date: 08 October 2024
Orbit: 534 x 541 km, 97.7° (Epoch: 04 November)

Event Time Altitude Azimuth Distance (km) Brightness Sun altitude
Rises 12:49:56 0° 356° (N) 2,730 ? -15.0°
Reaches altitude 10° 12:52:25 10° 341° (NNW) 1,829 ? -14.5°
Maximum altitude 12:55:28 22° 291° (WNW) 1,231 ? -13.9°
Enters shadow 12:55:41 22° 286° (WNW) 1,234 ? -13.8°
